Regional Weather Roundup
Issued by NWS Kansas City/Pleasant Hill, MO

Home | Current Version | Previous Version | Graphics & Text | Print | Product List | Glossary Off
Versions: 1 2 3 4 5 6 7 8 9 10 11 12 13 14 15 16 17 18 19 20 21 22 23 24 25 26 27 28 29 30 31 32 33 34 35 36 37 38 39 40 41 42 43 44 45 46 47 48 49 50

000
ASUS43 KEAX 241310
RWREAX

WEATHER ROUNDUP FOR EASTERN KANSAS AND NORTHWEST MISSOURI
NATIONAL WEATHER SERVICE KANSAS CITY/PLEASANT HILL MO
800 AM CDT SUN MAY 24 2015

KSZ040-057-103>105-MOZ028-029-037-043-241400-
...KANSAS CITY METROPOLITAN AREA...

CITY           SKY/WX    TMP DP  RH WIND       PRES   REMARKS
K.C. INTL      LGT RAIN  64  64 100 S8        29.90R FOG
K.C. DOWNTOWN  LGT RAIN  66  63  90 SW6       29.89R FOG
LEES SUMMIT    CLOUDY    65  63  93 S12       29.91S
OLATHE - IXD   CLOUDY    64  63  96 S9        29.90S
OLATHE - OJC   CLOUDY    64  63  96 SW10G17   29.89F
LAWRENCE       CLOUDY    65  62  90 SW6       29.89F

$$

MOZ001>008-011>017-020>025-030>033-038>040-044>046-053-054-241400-
...NORTHERN AND CENTRAL MISSOURI...

CITY           SKY/WX    TMP DP  RH WIND       PRES   REMARKS
ST. JOSEPH     CLOUDY    62  61  96 S5        29.89S
MOSBY          DRIZZLE   64  63  94 SE8       29.90S
WARRENSBURG    DRIZZLE   63  61  94 S8        29.91S
WHITEMAN AFB   DRIZZLE   64  63  95 S15G21    29.90F
CLINTON        CLOUDY    66  64  94 S15       29.93S FOG
SEDALIA        RAIN      64  60  87 SE16      29.96R FOG
WARSAW         NOT AVBL
CHILLICOTHE      N/A     63  32  31 SE7       29.93S
KIRKSVILLE     LGT RAIN  60  59  96 SE12      29.98F FOG

$$

MOZ041-047>049-056>058-063>065-088>090-097-241400-
...EASTERN AND SOUTHERN MISSOURI...

CITY           SKY/WX    TMP DP  RH WIND       PRES   REMARKS
ST. LOUIS INTL PTSUNNY   70  56  61 SE12      30.08F
SPIRIT OF STL  PTSUNNY   68  58  70 VRB6      30.06S
COLUMBIA       CLOUDY    66  57  72 SE10      29.99F
JEFFERSON CITY CLOUDY    68  57  68 SE10      29.98F
ROLLA          CLOUDY    69  61  75 S15       30.01S
OSAGE BEACH    CLOUDY    70  59  68 S7        29.98S
SPRINGFIELD    CLOUDY    66  63  90 SE13      29.95F
BRANSON        LGT RAIN  66  66 100 S9        29.99F
JOPLIN         CLOUDY    66  64  93 CALM      29.91S
WEST PLAINS    CLOUDY    68  61  78 S13G20    30.06S

$$

IAZ060-094-KSZ022-034>040-054-083-096-NEZ052-066-093-241400-
...KANSAS...SOUTHEAST NEBRASKA AND IOWA...

CITY           SKY/WX    TMP DP  RH WIND       PRES   REMARKS
TOPEKA         CLOUDY    64  62  93 S6        29.88F
MANHATTAN      CLOUDY    62  62 100 SW8       29.89F
EMPORIA        CLOUDY    61  60  97 SW5       29.90F
CHANUTE        CLOUDY    64  63  96 SW5       29.91F
WICHITA        CLOUDY    61  59  93 SE7       29.90S
OMAHA          DRIZZLE   61  60  97 E10       29.88S FOG
LINCOLN        LGT RAIN  61  60  97 CALM      29.88S FOG
FALLS CITY     CLOUDY    62  61  96 SE7       29.86F FOG
LAMONI         LGT RAIN  63  59  87 SE9G21    29.91F
DES MOINES     LGT RAIN  62  59  90 SE10G21   29.95F

$$




USA.gov is the U.S. government's official web portal to all federal, state and local government web resources and services.